COSMOS 2251 DEB, 40223

Orbit data source: Space-Track

COSMOS 2251 DEB, 40223 is space debris in LEO originally from a launch on Wed, 16 Jun 1993 UTC launched from the Plesetsk Missile And Space Complex (PKMTR). The debris from Iridium 33, an American commercial communications satellite, has been tracked extensively since its accidental collision with the defunct Russian satellite Cosmos 2251 in 2009. This event, occurring at high speed in low Earth orbit (LEO), generated thousands of pieces of space debris, significantly increasing the risk of further collisions. The Iridium 33 debris cloud has impacted space traffic management and orbital debris mitigation strategies, making it a subject of ongoing study in space situational awareness.

Loading next visibility...
Identifier
40223, 1993-036BVC
Orbit
LEO
Country
Flag of CISCIS
Related business
Manufacturer
Unknown
Mission
Spacecraft
Bus & Motor
Unknown
Mass
Unknown
Launch date (UTC)
1993-06-16 (32 years ago)
Launch vehicle
Unknown
Launch site
Plesetsk Missile And Space Complex (PKMTR)
Object type
Payload
Rocket body
Debris
Shape & HBR
Unknown
Radar Cross Section
Small (<0.1 m²)

Expand to show TLE details & history
Last TLE update: 2 days ago

TLE from 2 days ago
0 COSMOS 2251 DEB
1 40223U 93036BVC 25257.74010479  .00022990  00000-0  22509-2 0  9997
2 40223  73.9413 269.8596 0013732  73.0969  45.0232 14.92153473580429
Epoch: 2025-09-14T17:45Z
TLE epoch observation values (Epoch: 2025-09-14T17:45:45.053Z)
Latitude
57.96088°
Longitude
162.24391°
Altitude
593.879 km
Speed
7.572 km/s
True Right ascension
04h 10m 32s
True Declination
57° 48' 08"
Sunlit
Object was in daylight at epoch
Visualization orbit readout
Latitude
Unknown
Longitude
Unknown
Altitude
Unknown
Speed
Unknown
Apparent Right ascension
Unknown
Apparent Declination
Unknown
Sunlit
N/A
Visualization observer readout
Local Sidereal Time
19:08:57
Azimuth
Unknown
Elevation
Unknown
Doppler factor
Unknown
Orbital elements
Apogee altitude
598.36 km
Perigee altitude
579.226 km
Semi-major axis
6,966.93 km
Eccentricity
0.00137
Inclination
73.9413°
RAAN
269.8596°
Arg. of periapsis
73.0969°
True anomaly
45.13465°
Mean anomaly
45.0232°
Eccentric anomaly
45.07891°
Mean motion
3.73234 °/min
Orbital period
96.45 mins
BSTAR
0.0022509
Loading maneuver chart data...
Computing Atmospheric mass density...

Documentation

Showing up to 5 results
|